Temperature
18 18 18 18 18 19 19 19 19 19 19 18 18 18 18 19 19 19 19 18 18 18 18 18 18 18 18 18 18 18 18 18 18 18 18 18 18 18 18 18 18 18 18
19 19 19 18 19 19 19 19 19 19 19 19 18 18 18 19 19 19 19 18 18 18 18 18 18 18 18 18 18 18 18 18 18 18 18 18 18 18 18 18 18 18 18
19 19 19 19 19 19 19 19 19 19 19 19 19 19 19 19 19 19 18 18 18 18 18 18 18 18 18 18 18 18 18 18 18 18 18 18 18 18 18 18 18 18 17
19 19 19 19 19 19 19 19 19 19 19 19 19 19 19 19 19 19 19 18 18 18 18 18 18 18 18 18 18 18 18 18 18 18 18 18 18 18 17 17 18 17 17
19 19 19 19 19 19 19 19 19 19 19 19 19 19 19 19 19 19 19 18 18 18 18 18 18 18 18 18 18 18 18 18 18 18 18 18 18 18 17 17 17 17 17
19 19 19 19 19 19 19 19 19 19 19 19 19 18 18 19 18 18 18 18 18 18 18 18 18 18 18 18 18 18 18 18 18 18 18 18 18 18 17 17 17 17 17
19 19 19 19 19 19 19 19 19 19 19 19 19 18 18 18 18 18 18 18 18 18 18 18 18 18 18 18 18 18 18 18 18 18 18 18 18 18 18 17 17 17 17
19 19 19 19 19 19 19 19 19 19 19 18 18 18 18 18 18 18 18 18 18 18 18 18 18 18 18 18 18 18 18 18 18 18 18 18 18 18 18 18 17 17 17
19 19 19 19 19 19 19 19 19 19 19 19 18 18 18 18 18 18 18 18 18 18 18 18 18 18 18 18 18 18 18 18 18 18 18 18 18 18 18 18 17 17 17
19 19 19 19 19 19 19 19 19 19 19 18 18 18 18 18 18 18 18 18 18 18 18 18 18 18 18 18 18 18 18 18 18 18 18 18 18 18 18 17 17 17 17
19 19 19 19 19 19 19 19 19 19 19 18 18 18 18 18 18 18 18 18 18 18 18 18 18 18 18 18 18 18 18 18 18 18 18 18 18 18 18 18 17 17 17
19 19 19 19 19 19 19 19 19 19 19 19 18 18 18 18 18 18 18 18 18 18 18 18 18 18 18 18 18 18 18 18 18 18 18 18 18 18 18 18 18 17 17
20 19 19 19 19 19 19 19 19 19 19 19 19 19 18 18 18 18 18 18 18 18 18 18 18 18 18 18 18 18 18 18 18 18 18 18 18 18 18 18 18 17 17
20 19 19 19 19 19 19 19 19 19 19 19 19 19 18 18 18 18 18 18 18 18 18 18 18 18 18 18 18 18 18 18 18 18 18 18 18 18 18 18 18 17 17
20 20 19 19 19 19 19 19 19 19 19 19 19 18 18 18 18 18 18 18 18 18 18 18 18 18 18 18 18 18 18 18 18 18 18 18 18 18 18 18 18 18 17
20 20 20 19 19 19 19 19 19 19 19 18 18 18 18 18 18 18 18 18 18 18 18 18 18 18 18 18 18 18 18 18 18 18 18 18 18 18 18 18 18 18 17
20 20 20 20 19 19 19 19 19 19 19 19 19 19 19 18 18 18 18 18 18 18 18 18 18 18 18 18 18 18 18 18 18 18 18 18 18 18 18 18 18 18 18
21 20 20 20 19 19 19 19 19 19 19 19 19 19 18 18 18 18 18 18 18 18 18 18 18 18 18 18 18 18 18 18 18 18 18 18 18 18 18 18 18 18 18
21 20 20 20 20 19 19 19 19 19 19 19 19 19 18 18 18 18 18 18 18 18 18 18 18 18 18 18 18 18 18 18 18 18 18 18 18 18 18 18 18 18 18
21 20 20 20 20 20 19 19 19 19 19 19 19 19 18 18 18 18 18 18 18 18 18 18 18 18 18 18 18 18 18 18 18 18 18 18 18 18 18 18 18 18 17
21 20 20 20 20 20 19 19 19 19 19 19 19 19 19 18 18 18 18 18 18 18 18 18 18 18 18 18 18 18 18 18 18 18 18 18 18 18 18 18 18 18 17
21 21 20 20 20 20 20 20 19 19 19 19 19 19 19 18 18 18 18 18 18 18 18 18 18 18 18 18 18 18 18 18 18 18 18 18 18 18 18 18 17 17 17
21 21 21 21 20 20 20 20 19 19 19 19 19 19 19 18 18 18 18 18 18 18 18 18 18 18 18 18 18 18 17 17 18 18 18 18 18 18 18 17 17 17 17
22 21 21 21 21 20 20 20 19 19 19 19 19 19 19 19 18 18 18 18 18 18 18 18 18 18 18 18 18 17 17 17 17 17 17 17 17 17 17 17 17 17 17
22 22 21 21 21 20 20 20 19 19 20 19 19 19 19 18 18 18 18 18 18 18 18 18 18 18 18 18 18 17 17 17 17 17 17 17 17 17 17 17 17 17 17
22 21 21 21 21 20 20 20 20 19 19 19 19 19 19 19 18 18 18 18 18 18 18 17 17 17 17 17 17 17 17 17 17 17 17 17 17 17 17 17 17 17 17
Wind_Speed
1 2 8 10 12 13 14 15 16 16 16 16 17 16 16 16 15 14 14 13 13 12 12 11 11 10 10 10 10 10 9 9 9 10 10 10 10 10 10 10 10 10 12
4 5 9 10 12 13 13 14 15 16 16 16 16 15 15 15 14 14 13 12 12 11 11 10 10 10 10 9 9 9 8 8 8 8 8 9 9 9 9 10 10 9 12
5 5 8 11 11 12 12 13 14 15 15 15 15 15 14 14 13 13 12 11 11 10 10 10 9 9 9 9 8 8 8 8 7 7 7 6 6 8 8 9 10 11 11
5 6 8 10 11 11 11 12 14 14 15 15 14 14 13 13 12 12 11 10 10 9 9 9 9 8 8 8 8 7 7 7 7 6 5 5 5 7 7 8 9 11 11
5 6 8 11 11 11 11 12 14 14 14 13 13 12 12 11 11 10 10 9 9 8 8 8 7 7 7 7 6 6 6 6 6 5 5 4 4 6 6 7 9 10 11
5 6 8 11 10 10 11 12 13 13 12 12 11 11 10 10 10 9 8 8 7 7 7 7 6 6 6 5 5 5 4 5 5 5 4 3 4 5 6 7 9 10 10
5 5 7 10 10 10 10 11 11 11 11 11 10 10 9 9 8 8 7 7 6 6 5 5 5 5 4 4 3 3 3 5 4 4 3 3 4 5 6 6 8 9 10
5 4 6 9 9 9 10 10 10 10 10 9 9 8 8 8 7 6 6 6 5 4 4 4 4 4 3 3 2 2 2 3 4 4 3 3 4 5 6 7 7 9 9
5 4 3 5 6 8 8 9 9 9 8 8 8 8 7 7 6 5 5 5 4 4 4 3 3 3 2 2 2 2 2 2 4 4 3 3 5 6 6 7 7 8 9
4 3 2 3 4 4 5 7 7 7 7 7 7 6 6 5 5 4 3 4 4 4 4 3 3 3 2 2 2 2 2 2 3 3 3 4 5 6 6 7 7 8 9
3 2 2 2 3 3 3 5 5 5 5 5 4 4 3 2 2 2 3 4 4 4 4 3 3 3 2 2 2 2 1 2 3 3 3 5 5 6 7 7 8 9 9
5 4 3 2 2 3 3 3 2 2 2 2 1 1 1 1 1 2 3 4 4 4 4 4 4 4 2 1 1 1 1 2 2 3 4 6 7 7 7 7 8 8 8
5 5 4 4 3 3 2 2 2 2 1 2 2 2 1 1 1 1 1 2 3 2 2 2 2 1 1 1 1 1 2 2 2 4 5 7 7 7 7 8 8 9 10
6 6 5 5 4 4 3 2 2 2 2 2 2 3 2 1 1 1 1 1 2 1 1 1 1 2 2 3 2 2 2 3 3 4 5 6 7 7 7 8 8 9 10
7 7 6 6 5 4 3 2 2 3 3 2 2 3 3 2 1 1 1 1 2 2 1 1 1 2 2 2 2 2 2 3 4 4 4 6 7 8 8 8 9 9 10
8 8 6 6 6 5 4 3 3 3 3 3 3 4 4 3 2 1 1 1 2 2 2 2 2 2 2 1 2 2 3 3 4 5 5 6 8 8 9 9 9 10 10
8 7 6 7 5 5 5 5 4 3 3 3 3 4 4 4 3 2 1 2 2 2 2 1 1 1 2 1 2 2 2 3 4 5 5 5 6 8 8 9 9 10 10
7 6 6 6 6 6 5 4 3 3 3 3 3 4 4 4 4 2 2 2 2 1 1 1 1 0 1 1 1 2 2 2 3 4 4 5 5 5 6 8 8 9 10
8 7 7 6 6 6 5 3 3 2 2 2 3 3 3 3 4 3 2 2 1 1 0 1 1 1 1 1 2 2 1 2 2 3 3 3 4 5 5 6 7 7 8
7 7 7 6 5 4 3 2 1 1 1 2 2 3 3 3 3 3 2 1 1 1 0 0 0 0 1 1 1 1 1 1 1 1 2 2 3 4 4 5 4 5 6
6 6 6 6 5 4 2 3 2 2 2 2 2 3 3 3 3 3 2 1 1 1 1 1 1 1 0 1 1 1 2 1 0 0 1 1 1 2 3 4 4 4 4
8 8 7 6 5 5 4 3 3 3 2 2 2 2 3 3 3 3 3 2 2 1 1 1 2 1 0 1 1 1 1 2 2 1 0 1 1 1 1 2 3 3 4
9 9 9 7 7 6 5 3 2 2 1 0 1 1 1 3 3 3 3 3 2 2 2 2 2 2 1 1 1 2 2 1 1 2 1 1 1 0 1 1 2 2 2
10 8 7 7 7 6 6 5 5 4 3 3 2 1 1 1 2 3 3 3 3 2 2 3 2 2 3 2 1 1 1 2 2 1 2 1 1 1 1 1 1 2 2
8 7 6 6 6 5 6 6 5 4 3 2 2 2 1 1 2 2 3 3 2 2 3 3 2 2 2 3 2 1 1 1 1 2 2 2 2 1 1 1 1 2 3
7 6 6 6 5 5 6 6 6 6 5 3 3 3 2 1 1 2 3 2 2 2 3 3 2 2 2 2 2 2 2 2 2 2 2 2 2 1 1 1 1 2 3
Wind_Direction
170 151 132 123 121 122 126 124 124 123 123 126 126 126 126 125 124 122 121 120 118 116 114 113 112 112 113 113 112 109 109 113 118 122 124 125 128 132 131 129 123 122 125
145 142 133 126 126 127 128 127 127 126 126 127 126 126 127 126 125 123 121 119 119 118 117 116 115 113 113 112 111 110 111 113 118 122 124 127 133 137 134 131 129 131 132
123 135 134 129 129 129 130 133 133 130 130 128 128 129 128 126 125 124 123 122 121 120 118 116 114 113 111 111 112 113 112 111 115 118 112 108 124 135 134 134 136 134 135
124 127 130 130 129 128 129 136 139 133 131 130 130 130 129 128 127 126 125 125 123 121 119 118 116 117 116 116 115 114 113 116 116 112 106 106 121 139 140 140 144 144 142
113 121 134 132 128 126 124 127 134 134 132 132 133 133 132 131 131 129 129 129 128 125 123 123 122 124 124 123 122 119 119 122 123 118 118 117 126 145 150 151 153 151 149
110 119 134 133 132 129 125 125 130 134 136 136 136 136 136 135 135 134 133 134 134 134 132 129 128 129 128 127 128 125 130 136 128 126 133 143 155 160 162 162 160 159 158
116 119 135 137 136 134 132 131 134 137 138 140 141 142 141 140 140 141 143 144 145 145 142 139 138 136 133 127 133 138 141 142 137 139 155 163 174 174 168 169 168 167 167
118 116 131 139 138 137 135 136 139 141 144 148 152 153 149 148 151 153 155 158 160 161 157 156 157 157 154 150 144 154 151 149 142 148 164 181 185 183 177 178 175 175 174
108 108 111 135 143 146 145 145 146 148 152 158 162 160 160 162 166 168 172 175 179 182 184 185 190 178 180 186 172 182 182 164 154 168 180 188 193 192 188 185 184 183 182
108 111 109 121 132 141 150 154 156 159 161 163 169 173 176 176 176 180 184 192 202 206 206 210 218 204 206 218 212 213 204 175 166 177 188 198 202 205 203 198 195 193 190
144 137 137 135 137 146 161 171 167 169 170 167 170 181 180 170 186 207 217 218 221 226 226 233 249 238 231 239 241 232 207 167 179 193 207 213 213 217 215 209 203 200 197
180 183 180 178 173 173 182 175 169 178 170 155 157 189 181 180 220 234 246 248 244 242 241 245 255 252 242 238 259 258 185 182 190 211 220 219 222 223 219 211 206 207 209
188 190 189 194 192 189 191 179 175 171 175 178 192 201 197 188 258 277 290 299 313 290 260 250 264 281 258 232 235 230 214 207 205 219 227 226 227 222 218 212 205 206 212
188 201 199 190 193 202 199 197 179 182 199 207 214 208 189 194 248 261 255 285 310 306 289 247 233 254 254 247 235 228 224 213 214 221 227 230 230 224 218 216 211 209 211
197 205 202 193 198 199 194 212 203 205 209 210 208 216 204 200 219 241 255 265 271 261 235 238 245 248 250 253 240 227 227 220 225 225 231 237 237 231 225 223 219 218 216
201 204 200 200 201 192 197 208 209 210 216 216 220 223 216 207 214 221 245 257 262 244 227 222 237 249 260 256 258 243 236 230 229 226 231 236 235 232 230 228 228 227 226
198 197 196 203 197 198 204 209 204 204 204 215 229 227 221 210 211 214 227 251 257 242 215 214 249 250 255 243 252 254 241 234 233 228 230 233 235 235 236 234 232 235 233
189 187 196 203 192 201 203 202 193 199 203 218 225 228 228 220 212 198 217 245 248 224 176 190 203 215 265 262 262 266 254 243 238 234 232 232 232 235 237 239 239 239 240
189 185 190 196 188 197 196 192 189 185 201 218 218 218 223 219 212 198 214 234 214 169 203 223 186 180 221 268 263 260 251 247 248 244 242 236 231 232 234 239 240 242 243
188 188 189 190 186 182 174 170 179 191 214 211 203 214 213 213 202 187 195 222 172 156 197 177 160 142 202 236 283 329 297 258 245 255 250 242 236 234 235 241 242 248 252
186 190 193 189 182 165 166 176 185 211 214 209 210 208 205 201 185 169 178 186 176 189 204 170 147 122 57 97 78 7 350 348 338 283 248 249 258 243 228 230 236 238 246
191 196 194 193 182 183 190 183 180 176 189 202 214 194 197 194 188 183 178 189 183 178 177 158 150 140 170 128 126 102 360 345 346 351 332 254 283 269 223 232 231 231 232
196 197 201 195 189 193 188 159 140 109 77 111 211 217 208 195 195 190 183 183 188 181 195 204 182 172 185 197 144 145 153 227 305 332 327 322 305 297 274 243 237 244 234
205 197 197 194 191 189 177 175 178 184 192 205 197 208 233 198 201 196 188 186 194 193 200 211 194 189 176 192 195 200 176 165 175 300 320 326 313 285 275 280 270 255 244
196 188 187 181 184 183 177 179 181 188 189 180 170 188 221 229 210 204 194 193 200 207 214 214 199 188 186 183 179 172 162 145 174 183 256 301 323 306 279 260 255 254 245
182 177 177 175 189 185 179 183 182 185 183 175 183 195 217 226 221 218 191 186 199 204 213 216 205 195 200 191 185 174 173 177 190 187 218 245 270 291 291 274 261 257 246
Height
1508 1508 1509 1510 1511 1512 1514 1515 1517 1519 1520 1522 1524 1525 1527 1529 1531 1532 1533 1535 1536 1538 1539 1540 1541 1543 1544 1545 1546 1547 1547 1548 1549 1550 1551 1551 1552 1553 1554 1554 1555 1556 1557
1509 1510 1510 1512 1513 1514 1516 1517 1519 1520 1522 1524 1526 1527 1529 1531 1532 1534 1535 1537 1538 1539 1541 1542 1543 1544 1545 1546 1547 1548 1549 1550 1551 1551 1552 1552 1553 1554 1555 1555 1556 1557 1558
1510 1511 1513 1514 1515 1516 1518 1518 1520 1523 1524 1526 1528 1530 1531 1533 1534 1536 1537 1538 1540 1541 1542 1543 1544 1545 1546 1547 1548 1549 1550 1551 1552 1552 1553 1553 1554 1555 1556 1556 1557 1558 1559
1512 1513 1515 1516 1517 1518 1519 1518 1521 1524 1526 1528 1530 1532 1533 1535 1536 1537 1539 1540 1541 1542 1543 1544 1545 1546 1547 1548 1549 1550 1551 1552 1553 1553 1554 1554 1555 1556 1557 1557 1558 1559 1560
1514 1515 1517 1518 1520 1521 1520 1519 1522 1526 1528 1530 1532 1534 1535 1536 1538 1539 1540 1541 1543 1544 1545 1545 1546 1548 1549 1550 1551 1552 1552 1553 1554 1554 1555 1555 1556 1557 1557 1558 1559 1560 1561
1516 1518 1519 1521 1522 1523 1524 1524 1526 1528 1530 1532 1534 1535 1537 1538 1539 1540 1542 1543 1544 1545 1546 1546 1547 1548 1549 1551 1552 1552 1553 1554 1554 1555 1555 1556 1556 1557 1558 1559 1559 1560 1561
1518 1520 1522 1523 1524 1526 1527 1528 1529 1531 1532 1534 1535 1537 1538 1539 1541 1542 1543 1544 1545 1546 1546 1547 1548 1549 1550 1551 1552 1553 1554 1554 1555 1555 1556 1556 1557 1557 1558 1559 1560 1560 1561
1521 1522 1524 1525 1527 1528 1529 1531 1532 1533 1534 1536 1537 1538 1540 1541 1542 1543 1544 1545 1546 1547 1547 1548 1549 1550 1551 1551 1552 1553 1554 1555 1555 1555 1556 1556 1557 1558 1558 1559 1560 1561 1562
1523 1524 1526 1527 1529 1530 1531 1533 1534 1535 1536 1537 1539 1540 1541 1542 1543 1544 1545 1546 1547 1547 1548 1548 1549 1550 1551 1552 1552 1553 1554 1555 1555 1556 1556 1557 1557 1558 1558 1559 1560 1561 1561
1524 1526 1527 1529 1530 1532 1533 1534 1536 1537 1538 1539 1540 1541 1542 1543 1544 1545 1546 1546 1547 1548 1548 1549 1550 1550 1551 1552 1553 1554 1554 1555 1555 1556 1556 1556 1557 1558 1558 1559 1560 1560 1561
1526 1527 1529 1530 1532 1533 1535 1536 1537 1538 1539 1540 1541 1542 1543 1544 1545 1546 1546 1547 1547 1548 1548 1549 1550 1551 1551 1552 1553 1553 1554 1555 1555 1556 1556 1556 1557 1557 1558 1559 1559 1560 1561
1526 1528 1530 1532 1533 1534 1536 1537 1538 1539 1540 1541 1542 1543 1544 1545 1545 1546 1547 1547 1548 1548 1549 1549 1550 1550 1551 1552 1552 1553 1554 1555 1555 1555 1556 1556 1556 1557 1557 1558 1558 1559 1560
1527 1529 1530 1532 1534 1535 1537 1538 1539 1540 1541 1542 1543 1544 1544 1545 1546 1546 1547 1547 1548 1548 1549 1549 1550 1550 1551 1552 1552 1553 1554 1554 1555 1555 1555 1555 1556 1556 1557 1557 1558 1558 1559
1528 1529 1531 1533 1534 1536 1537 1538 1540 1541 1542 1543 1543 1544 1545 1545 1546 1546 1547 1547 1548 1548 1548 1549 1549 1550 1551 1551 1552 1553 1553 1554 1554 1554 1555 1555 1555 1556 1556 1557 1557 1557 1558
1528 1530 1531 1533 1535 1536 1537 1538 1540 1541 1542 1543 1544 1544 1545 1545 1546 1546 1547 1547 1547 1548 1548 1548 1549 1549 1550 1551 1551 1552 1552 1553 1553 1553 1554 1554 1554 1555 1555 1555 1556 1556 1557
1528 1530 1532 1533 1535 1536 1537 1538 1539 1541 1542 1543 1544 1544 1545 1545 1545 1546 1546 1547 1547 1547 1548 1548 1548 1549 1549 1550 1550 1551 1551 1551 1552 1552 1552 1553 1553 1553 1554 1554 1554 1555 1555
1528 1530 1531 1533 1534 1536 1537 1538 1539 1540 1541 1543 1543 1544 1544 1545 1545 1546 1546 1546 1547 1547 1547 1547 1547 1548 1548 1549 1549 1549 1550 1550 1550 1551 1551 1551 1551 1552 1552 1552 1553 1553 1553
1527 1529 1531 1533 1534 1535 1536 1538 1539 1540 1541 1542 1543 1544 1544 1544 1545 1545 1545 1546 1546 1546 1546 1546 1546 1547 1547 1547 1547 1548 1548 1548 1549 1549 1549 1550 1550 1550 1551 1551 1551 1551 1552
1526 1528 1530 1532 1533 1534 1536 1537 1538 1539 1540 1541 1542 1543 1543 1544 1544 1544 1545 1545 1545 1545 1545 1545 1545 1546 1546 1546 1546 1546 1546 1547 1547 1547 1548 1548 1548 1549 1549 1549 1550 1550 1550
1525 1527 1529 1531 1532 1534 1535 1536 1537 1538 1539 1540 1541 1542 1542 1543 1543 1543 1544 1544 1544 1544 1544 1544 1544 1544 1544 1545 1545 1545 1545 1545 1545 1546 1546 1546 1547 1547 1547 1547 1547 1547 1547
1524 1525 1528 1529 1530 1532 1533 1535 1536 1537 1538 1539 1540 1541 1542 1542 1543 1543 1543 1543 1543 1543 1544 1543 1543 1543 1543 1543 1543 1543 1544 1544 1544 1544 1545 1545 1545 1545 1545 1545 1545 1545 1545
1522 1523 1525 1527 1529 1530 1532 1533 1535 1536 1537 1538 1539 1540 1541 1541 1542 1542 1542 1542 1542 1542 1542 1542 1542 1542 1542 1542 1542 1542 1542 1544 1543 1543 1543 1544 1544 1544 1544 1544 1544 1543 1543
1519 1521 1523 1526 1527 1529 1531 1532 1533 1535 1536 1537 1538 1539 1540 1540 1541 1541 1541 1542 1542 1542 1542 1542 1542 1541 1541 1541 1541 1542 1541 1541 1542 1542 1542 1542 1542 1542 1542 1542 1542 1542 1542
1516 1519 1522 1524 1526 1527 1529 1530 1531 1532 1533 1535 1536 1537 1538 1539 1540 1540 1540 1541 1541 1541 1540 1541 1540 1540 1540 1540 1540 1540 1540 1540 1540 1540 1541 1541 1541 1541 1541 1541 1540 1540 1540
1514 1517 1519 1521 1523 1525 1527 1528 1529 1530 1531 1533 1534 1535 1536 1537 1538 1539 1539 1539 1539 1539 1539 1539 1539 1539 1539 1538 1538 1538 1538 1538 1538 1539 1538 1539 1539 1539 1539 1539 1539 1539 1539
1512 1514 1517 1519 1521 1523 1524 1526 1527 1528 1529 1530 1532 1533 1534 1535 1536 1537 1537 1538 1538 1538 1538 1538 1538 1537 1537 1537 1537 1537 1537 1537 1537 1537 1537 1536 1537 1537 1537 1537 1537 1537 1537